Content
SEND FEEDBACK

Daily
Averages
Monthly
Summary
United States of America

STATEN ISLAND, NEW YORK


Home > North America > United States > New York
Elevation: 46 meters     Latitude: 40 35N     Longitude: 074 09W

WEATHER
 
SELECT A DAY
Number of Records: 192,352;   Date Range: 1/1/95 - 10/20/14
 
SHARE

PRINT THIS DATA

[ ← Previous Day ]
WEATHER ALMANAC - 22 FEBRUARY, 2013
[ Next Day → ]
[ °F ]   °C
Weather ElementAverageHighLow
Temperature0.6 °C3.9 °C (11:51 pm)-5 °C (4:51 am)
Dewpoint-5.3 °C0 °C (10:51 pm)-10 °C (1:51 am)
Humidity66.1 %79 % (10:51 pm)50 % (12:51 pm)
Barometer1027.4 hPa1029.5 hPa (7:51 am)1025.1 hPa (11:51 pm)
Wind Speed10.3 km/h18.5 km/h (5:51 am)
Weather ElementAverage
Visibility16.1 km
Wind DirectionESE (101.7 °)

Weather ElementTotal
Precipitation---
Heating Degree Days18.9 (Base 18.3)
Averaged from 24 records on 22 February, 2013
WEATHER CONDITIONS BREAKOUT
WIND DIRECTION BREAKOUT
WEATHER BY HOUR - 22 FEBRUARY, 2013
[ °F ]   °C
Local TimeTemperatureDewpointHumidityBarometerVisibilityWind DirectionWind SpeedGust SpeedPrecipitationEventsConditions
1:51 AM-3.9 °C-10 °C63 %1025.4 hPa16.1 kmNorth (360°)14.8 km/hClear
2:51 AM-3.9 °C-10 °C63 %1026.8 hPa16.1 kmNNW (340°)14.8 km/hClear
3:51 AM-4.4 °C-9.4 °C69 %1026.8 hPa16.1 kmNorth (10°)13 km/hOvercast
4:51 AM-5 °C-9.4 °C72 %1027.4 hPa16.1 kmNorth (10°)9.3 km/hOvercast
5:51 AM-3.3 °C-8.3 °C69 %1028.4 hPa16.1 kmNorth (360°)18.5 km/hOvercast
6:51 AM-3.3 °C-7.8 °C71 %1029.1 hPa16.1 kmNorth (10°)13 km/hOvercast
7:51 AM-2 °C-7 °C69 %1029.5 hPa16.1 kmNNE (20°)16.7 km/hOvercast
8:51 AM-1.7 °C-7.2 °C67 %1029.5 hPa16.1 kmNNE (20°)16.7 km/hMostly Cloudy
9:51 AM-1.1 °C-7.2 °C64 %1029.1 hPa16.1 kmNNE (30°)14.8 km/hMostly Cloudy
10:51 AM1 °C-7 °C56 %1029.5 hPa16.1 kmNE (40°)5.6 km/hMostly Cloudy
11:51 AM2.2 °C-6.7 °C52 %1028.8 hPa16.1 kmENE (60°)5.6 km/hOvercast
12:51 PM2.8 °C-6.7 °C50 %1027.8 hPa16.1 kmVariable5.6 km/hOvercast
1:51 PM2.8 °C-6.7 °C50 %1027.1 hPa16.1 kmEast (80°)7.4 km/hOvercast
2:51 PM3.3 °C-5.6 °C53 %1026.4 hPa16.1 kmVariable9.3 km/hOvercast
3:51 PM2.8 °C-3.9 °C62 %1026.8 hPa16.1 kmSouth (170°)13 km/hOvercast
4:51 PM2.2 °C-3.3 °C67 %1026.8 hPa16.1 kmSSE (160°)9.3 km/hOvercast
5:51 PM2.2 °C-2.8 °C70 %1027.1 hPa14.5 kmSE (130°)7.4 km/h0 mmSnowLight Snow
6:51 PM2.8 °C-2.2 °C70 %1026.8 hPa16.1 kmVariable7.4 km/h0 mmOvercast
7:19 PM3 °C-2 °C70 %1026.8 hPa16.1 kmSE (130°)9.3 km/hOvercast
7:51 PM2.8 °C-1.1 °C76 %1027.1 hPa16.1 kmSE (140°)9.3 km/hOvercast
8:51 PM3.3 °C-1.1 °C73 %1026.8 hPa16.1 kmSE (140°)11.1 km/hOvercast
9:51 PM3.3 °C-0.6 °C76 %1026.1 hPa16.1 kmESE (120°)7.4 km/hOvercast
10:51 PM3.3 °C0 °C79 %1025.7 hPa16.1 kmESE (110°)5.6 km/hOvercast
11:51 PM3.9 °C0 °C76 %1025.1 hPa16.1 kmCalmOvercast
Hourly data recorded from KEWR, located 0 kilometers away from Staten Island, New York







STORIES FROM OUR PARTNERS